SIA157 VDPP-WSSS

Flight info

Callsign SIA157
Flight time 1h 38m
Altitude 40000
Route CONDA2 KISAN M755 BITOD/K0895F410 M753 IPRIX/N0484F410 Q802 ELALO ELALO1A
Aircraft A359/H-SDE1E2E3GHIJ1J2J3J5M1P2RWXYZ/LB1D1

Departure

Time 2026-04-25 03:59
Airport Phnom Penh International Airport (VDPP)

Arrival

Time 2026-04-25 05:38
Airport Singapore Changi Airport (WSSS)
Time Latitude Longitude Altitude Speed Heading
2026-04-25 03:29 11.55253 104.84650 47 ft 0 kts 307°
2026-04-25 03:45 11.55249 104.84656 45 ft 2 kts 307°
2026-04-25 03:46 11.55238 104.84669 43 ft 2 kts 326°
2026-04-25 03:46 11.55223 104.84673 42 ft 2 kts 30°
2026-04-25 03:46 11.55211 104.84662 42 ft 2 kts 44°
2026-04-25 03:46 11.55201 104.84652 41 ft 1 kts 46°
2026-04-25 03:53 11.55210 104.84661 43 ft 4 kts 46°
2026-04-25 03:53 11.55241 104.84694 41 ft 8 kts 45°
2026-04-25 03:53 11.55259 104.84725 43 ft 2 kts 97°
2026-04-25 03:54 11.55254 104.84729 43 ft 1 kts 128°
2026-04-25 03:54 11.55243 104.84740 40 ft 4 kts 134°
2026-04-25 03:54 11.55239 104.84744 45 ft 0 kts 134°
2026-04-25 03:55 11.55221 104.84763 40 ft 9 kts 135°
2026-04-25 03:55 11.55172 104.84813 44 ft 11 kts 135°
2026-04-25 03:55 11.55121 104.84865 42 ft 7 kts 126°
2026-04-25 03:56 11.55130 104.84906 46 ft 6 kts 46°
2026-04-25 03:56 11.55173 104.84950 44 ft 12 kts 45°
2026-04-25 03:56 11.55248 104.85028 45 ft 19 kts 45°
2026-04-25 03:56 11.55347 104.85130 41 ft 22 kts 45°
2026-04-25 03:57 11.55457 104.85244 41 ft 21 kts 45°
2026-04-25 03:57 11.55526 104.85316 40 ft 10 kts 42°
2026-04-25 03:57 11.55591 104.85344 41 ft 10 kts 38°
2026-04-25 03:57 11.55592 104.85376 42 ft 2 kts 152°
2026-04-25 03:58 11.55571 104.85360 41 ft 7 kts 222°
2026-04-25 03:58 11.55553 104.85342 40 ft 0 kts 225°
2026-04-25 03:58 11.55476 104.85261 45 ft 53 kts 225°
2026-04-25 03:59 11.55013 104.84785 42 ft 135 kts 225°
2026-04-25 03:59 11.54194 104.83969 425 ft 165 kts 221°
2026-04-25 03:59 11.53275 104.83241 1210 ft 178 kts 214°
2026-04-25 03:59 11.52130 104.82710 1787 ft 189 kts 190°
2026-04-25 04:00 11.50750 104.82734 2142 ft 210 kts 172°
2026-04-25 04:00 11.49199 104.82816 2569 ft 236 kts 178°
2026-04-25 04:00 11.47507 104.82735 3126 ft 250 kts 182°
2026-04-25 04:00 11.45735 104.82560 3830 ft 259 kts 184°
2026-04-25 04:01 11.43946 104.82342 4615 ft 264 kts 184°
2026-04-25 04:01 11.42107 104.82097 5357 ft 270 kts 185°
2026-04-25 04:01 11.40218 104.81835 5827 ft 275 kts 185°
2026-04-25 04:01 11.38312 104.81566 5987 ft 277 kts 185°
2026-04-25 04:02 11.36400 104.81294 6006 ft 278 kts 185°
2026-04-25 04:02 11.34481 104.81019 5997 ft 279 kts 185°
2026-04-25 04:02 11.32562 104.80743 5999 ft 280 kts 186°
2026-04-25 04:02 11.30639 104.80422 5993 ft 280 kts 187°
2026-04-25 04:03 11.28726 104.80088 5993 ft 280 kts 187°
2026-04-25 04:03 11.26827 104.79762 5994 ft 280 kts 187°
2026-04-25 04:03 11.24886 104.79430 6000 ft 280 kts 187°
2026-04-25 04:03 11.22970 104.79105 6002 ft 279 kts 186°
2026-04-25 04:04 11.21053 104.78781 5999 ft 279 kts 187°
2026-04-25 04:04 11.19140 104.78460 5993 ft 279 kts 187°
2026-04-25 04:04 11.17250 104.78140 6009 ft 278 kts 187°
2026-04-25 04:04 11.15306 104.77814 6259 ft 281 kts 187°
2026-04-25 04:05 11.13400 104.77493 6830 ft 283 kts 187°
2026-04-25 04:05 11.11456 104.77165 7657 ft 284 kts 187°
2026-04-25 04:05 11.09504 104.76838 8511 ft 286 kts 187°
2026-04-25 04:05 11.07528 104.76508 9375 ft 288 kts 187°
2026-04-25 04:06 11.05539 104.76176 10193 ft 292 kts 187°
2026-04-25 04:06 11.03484 104.75838 10633 ft 309 kts 187°
2026-04-25 04:06 11.01284 104.75471 10973 ft 329 kts 188°
2026-04-25 04:06 10.98977 104.75079 11326 ft 346 kts 188°
2026-04-25 04:07 10.96552 104.74668 11794 ft 357 kts 188°
2026-04-25 04:07 10.94090 104.74252 12354 ft 365 kts 188°
2026-04-25 04:07 10.91547 104.73824 12946 ft 371 kts 188°
2026-04-25 04:07 10.88974 104.73391 13514 ft 377 kts 188°
2026-04-25 04:08 10.86373 104.72955 14118 ft 380 kts 188°
2026-04-25 04:08 10.83763 104.72515 14718 ft 382 kts 188°
2026-04-25 04:08 10.81135 104.72074 15326 ft 384 kts 188°
2026-04-25 04:08 10.78494 104.71630 15906 ft 386 kts 189°
2026-04-25 04:09 10.75828 104.71182 16473 ft 389 kts 188°
2026-04-25 04:09 10.73159 104.70734 17056 ft 391 kts 188°
2026-04-25 04:09 10.70466 104.70282 17666 ft 392 kts 188°
2026-04-25 04:09 10.67776 104.69831 18248 ft 394 kts 189°
2026-04-25 04:10 10.65054 104.69374 18661 ft 398 kts 189°
2026-04-25 04:10 10.62306 104.68914 19114 ft 401 kts 189°
2026-04-25 04:10 10.59540 104.68450 19498 ft 406 kts 189°
2026-04-25 04:10 10.56739 104.67979 19977 ft 409 kts 188°
2026-04-25 04:11 10.51126 104.67040 20891 ft 415 kts 189°
2026-04-25 04:11 10.48262 104.66532 21378 ft 418 kts 190°
2026-04-25 04:11 10.45392 104.66008 21846 ft 421 kts 190°
2026-04-25 04:12 10.42502 104.65476 22308 ft 425 kts 190°
2026-04-25 04:12 10.39576 104.64940 22788 ft 428 kts 190°
2026-04-25 04:12 10.36634 104.64404 23242 ft 431 kts 190°
2026-04-25 04:12 10.33681 104.63871 23691 ft 434 kts 190°
2026-04-25 04:13 10.30688 104.63332 24026 ft 438 kts 190°
2026-04-25 04:13 10.27680 104.62792 24371 ft 442 kts 190°
2026-04-25 04:13 10.24633 104.62246 24760 ft 445 kts 189°
2026-04-25 04:13 10.21578 104.61699 25196 ft 448 kts 190°
2026-04-25 04:14 10.18493 104.61146 25641 ft 451 kts 190°
2026-04-25 04:14 10.15402 104.60592 26096 ft 454 kts 190°
2026-04-25 04:14 10.12274 104.60031 26567 ft 457 kts 190°
2026-04-25 04:14 10.09137 104.59468 27004 ft 461 kts 190°
2026-04-25 04:15 10.05962 104.58900 27458 ft 464 kts 191°
2026-04-25 04:15 10.02775 104.58342 27902 ft 467 kts 190°
2026-04-25 04:15 9.99545 104.57793 28352 ft 471 kts 190°
2026-04-25 04:15 9.96306 104.57250 28784 ft 474 kts 190°
2026-04-25 04:16 9.93032 104.56702 29202 ft 477 kts 190°
2026-04-25 04:16 9.89751 104.56153 29648 ft 481 kts 190°
2026-04-25 04:16 9.86432 104.55596 30050 ft 484 kts 190°
2026-04-25 04:16 9.83111 104.55037 30428 ft 486 kts 190°
2026-04-25 04:17 9.79774 104.54473 30767 ft 489 kts 191°
2026-04-25 04:17 9.76402 104.53903 31114 ft 491 kts 190°
2026-04-25 04:17 9.73030 104.53333 31449 ft 494 kts 190°
2026-04-25 04:17 9.69623 104.52758 31758 ft 496 kts 190°
2026-04-25 04:18 9.66248 104.52188 32057 ft 499 kts 190°
2026-04-25 04:18 9.62806 104.51607 32380 ft 501 kts 190°
2026-04-25 04:18 9.59368 104.51026 32699 ft 503 kts 189°
2026-04-25 04:18 9.55914 104.50443 32963 ft 505 kts 189°
2026-04-25 04:19 9.52430 104.49856 33240 ft 508 kts 190°
2026-04-25 04:19 9.48908 104.49262 33685 ft 505 kts 190°
2026-04-25 04:19 9.45493 104.48687 34164 ft 502 kts 190°
2026-04-25 04:19 9.42059 104.48108 34491 ft 502 kts 190°
2026-04-25 04:20 9.38607 104.47526 34788 ft 501 kts 190°
2026-04-25 04:20 9.35177 104.46948 35122 ft 500 kts 190°
2026-04-25 04:20 9.31734 104.46367 35428 ft 500 kts 190°
2026-04-25 04:20 9.28311 104.45790 35734 ft 500 kts 190°
2026-04-25 04:21 9.24871 104.45211 36037 ft 499 kts 189°
2026-04-25 04:21 9.21453 104.44635 36337 ft 499 kts 190°
2026-04-25 04:21 9.18019 104.44057 36632 ft 499 kts 189°
2026-04-25 04:21 9.14590 104.43480 36944 ft 497 kts 190°
2026-04-25 04:22 9.11187 104.42907 37290 ft 496 kts 190°
2026-04-25 04:22 9.07779 104.42333 37582 ft 495 kts 190°
2026-04-25 04:22 9.04387 104.41763 37855 ft 495 kts 190°
2026-04-25 04:22 9.01028 104.41197 38108 ft 495 kts 190°
2026-04-25 04:23 8.97590 104.40619 38386 ft 494 kts 189°
2026-04-25 04:23 8.94237 104.40055 38647 ft 494 kts 190°
2026-04-25 04:23 8.90807 104.39479 38847 ft 494 kts 190°
2026-04-25 04:23 8.87460 104.38916 39053 ft 493 kts 189°
2026-04-25 04:24 8.84086 104.38349 39276 ft 492 kts 189°
2026-04-25 04:24 8.80704 104.37781 39499 ft 491 kts 189°
2026-04-25 04:24 8.77348 104.37218 39749 ft 489 kts 190°
2026-04-25 04:24 8.73984 104.36654 39905 ft 489 kts 190°
2026-04-25 04:25 8.70636 104.36091 39942 ft 488 kts 190°
2026-04-25 04:25 8.63936 104.34966 39930 ft 488 kts 190°
2026-04-25 04:26 8.57235 104.33842 39943 ft 488 kts 190°
2026-04-25 04:26 8.50533 104.32717 39927 ft 488 kts 190°
2026-04-25 04:27 8.43830 104.31593 39927 ft 488 kts 190°
2026-04-25 04:27 8.37149 104.30473 39928 ft 486 kts 190°
2026-04-25 04:28 8.30482 104.29355 39943 ft 485 kts 190°
2026-04-25 04:28 8.23820 104.28240 39927 ft 485 kts 190°
2026-04-25 04:29 8.17192 104.27129 39927 ft 485 kts 190°
2026-04-25 04:29 8.10531 104.26014 39931 ft 485 kts 190°
2026-04-25 04:30 8.03897 104.24903 39938 ft 483 kts 190°
2026-04-25 04:30 7.97291 104.23798 39934 ft 479 kts 190°
2026-04-25 04:31 7.90705 104.22696 39922 ft 480 kts 190°
2026-04-25 04:31 7.84111 104.21593 39925 ft 480 kts 190°
2026-04-25 04:32 7.77528 104.20493 39918 ft 480 kts 190°
2026-04-25 04:32 7.70934 104.19391 39934 ft 480 kts 190°
2026-04-25 04:33 7.64344 104.18290 39919 ft 480 kts 190°
2026-04-25 04:33 7.57747 104.17188 39916 ft 481 kts 190°
2026-04-25 04:34 7.51202 104.16096 39933 ft 480 kts 190°
2026-04-25 04:34 7.44607 104.14995 39915 ft 481 kts 190°
2026-04-25 04:35 7.38012 104.13895 39922 ft 479 kts 190°
2026-04-25 04:35 7.31421 104.12796 39922 ft 481 kts 190°
2026-04-25 04:36 7.24772 104.12012 39920 ft 482 kts 181°
2026-04-25 04:36 7.18067 104.12184 39919 ft 482 kts 178°
2026-04-25 04:37 7.11356 104.12537 39921 ft 483 kts 178°
2026-04-25 04:37 7.04638 104.12915 39919 ft 482 kts 178°
2026-04-25 04:38 6.97960 104.13523 39917 ft 483 kts 173°
2026-04-25 04:38 6.92434 104.14362 39920 ft 483 kts 172°
2026-04-25 04:39 6.85786 104.15444 39921 ft 483 kts 171°
2026-04-25 04:39 6.79158 104.16530 39919 ft 482 kts 172°
2026-04-25 04:40 6.72532 104.17607 39914 ft 483 kts 172°
2026-04-25 04:40 6.65902 104.18679 39917 ft 483 kts 172°
2026-04-25 04:41 6.59267 104.19751 39914 ft 482 kts 171°
2026-04-25 04:41 6.52656 104.20818 39912 ft 480 kts 172°
2026-04-25 04:42 6.46052 104.21884 39915 ft 481 kts 172°
2026-04-25 04:42 6.39463 104.22947 39916 ft 483 kts 172°
2026-04-25 04:43 6.32832 104.24018 39916 ft 483 kts 171°
2026-04-25 04:43 6.26201 104.25088 39913 ft 482 kts 172°
2026-04-25 04:44 6.19579 104.26156 39910 ft 481 kts 171°
2026-04-25 04:44 6.12957 104.27223 39908 ft 482 kts 172°
2026-04-25 04:45 6.06332 104.28292 39911 ft 482 kts 172°
2026-04-25 04:45 5.99724 104.29357 39912 ft 481 kts 172°
2026-04-25 04:46 5.93111 104.30422 39910 ft 481 kts 171°
2026-04-25 04:46 5.86533 104.31482 39912 ft 482 kts 171°
2026-04-25 04:47 5.79918 104.32548 39908 ft 481 kts 172°
2026-04-25 04:47 5.73318 104.33611 39908 ft 480 kts 172°
2026-04-25 04:48 5.66670 104.34680 39914 ft 481 kts 171°
2026-04-25 04:48 5.60082 104.35741 39910 ft 481 kts 171°
2026-04-25 04:49 5.53479 104.36804 39907 ft 480 kts 171°
2026-04-25 04:49 5.46892 104.37863 39908 ft 479 kts 171°
2026-04-25 04:50 5.40293 104.38925 39909 ft 480 kts 171°
2026-04-25 04:50 5.33695 104.39986 39910 ft 479 kts 171°
2026-04-25 04:51 5.27117 104.41043 39904 ft 478 kts 171°
2026-04-25 04:51 5.20537 104.42101 39906 ft 479 kts 171°
2026-04-25 04:52 5.13956 104.43158 39906 ft 479 kts 171°
2026-04-25 04:52 5.07360 104.44218 39905 ft 479 kts 171°
2026-04-25 04:53 5.00787 104.45274 39904 ft 479 kts 171°
2026-04-25 04:53 4.94234 104.46327 39902 ft 472 kts 171°
2026-04-25 04:54 4.87789 104.47362 39905 ft 468 kts 171°
2026-04-25 04:54 4.81385 104.48257 39905 ft 467 kts 173°
2026-04-25 04:55 4.71499 104.49458 40182 ft 468 kts 172°
2026-04-25 04:55 4.68274 104.49860 40384 ft 467 kts 172°
2026-04-25 04:55 4.65054 104.50264 40560 ft 467 kts 172°
2026-04-25 04:56 4.61828 104.50670 40720 ft 466 kts 172°
2026-04-25 04:56 4.58597 104.51077 40883 ft 466 kts 172°
2026-04-25 04:56 4.55388 104.51481 40900 ft 467 kts 172°
2026-04-25 04:57 4.48939 104.52295 40904 ft 466 kts 172°
2026-04-25 04:57 4.42508 104.53106 40901 ft 466 kts 172°
2026-04-25 04:58 4.36076 104.53917 40902 ft 466 kts 172°
2026-04-25 04:58 4.29632 104.54729 40900 ft 467 kts 172°
2026-04-25 04:59 4.23201 104.55540 40899 ft 466 kts 172°
2026-04-25 04:59 4.16793 104.56282 40896 ft 466 kts 174°
2026-04-25 05:00 4.10329 104.56879 40899 ft 467 kts 174°
2026-04-25 05:00 4.03881 104.57497 40899 ft 466 kts 174°
2026-04-25 05:01 3.97427 104.58125 40898 ft 466 kts 174°
2026-04-25 05:01 3.90938 104.58759 40898 ft 472 kts 174°
2026-04-25 05:02 3.84345 104.59404 40901 ft 478 kts 174°
2026-04-25 05:02 3.77716 104.60053 40899 ft 478 kts 174°
2026-04-25 05:03 3.71098 104.60704 40898 ft 478 kts 174°
2026-04-25 05:03 3.64523 104.61348 40896 ft 477 kts 174°
2026-04-25 05:04 3.57866 104.62000 40895 ft 478 kts 174°
2026-04-25 05:04 3.51301 104.62645 40899 ft 478 kts 174°
2026-04-25 05:05 3.44684 104.63294 40895 ft 477 kts 174°
2026-04-25 05:05 3.38069 104.63943 40894 ft 478 kts 174°
2026-04-25 05:06 3.31447 104.64593 40895 ft 478 kts 174°
2026-04-25 05:06 3.24834 104.65242 40897 ft 477 kts 174°
2026-04-25 05:06 3.21537 104.65565 40770 ft 475 kts 174°
2026-04-25 05:07 3.18249 104.65887 40104 ft 475 kts 174°
2026-04-25 05:07 3.14954 104.66211 39367 ft 477 kts 173°
2026-04-25 05:07 3.11643 104.66535 38674 ft 478 kts 173°
2026-04-25 05:07 3.08324 104.66636 37855 ft 481 kts 182°
2026-04-25 05:08 3.05012 104.66031 36946 ft 487 kts 196°
2026-04-25 05:08 3.01913 104.64613 36052 ft 494 kts 211°
2026-04-25 05:08 2.99229 104.62455 35163 ft 500 kts 224°
2026-04-25 05:08 2.96824 104.59916 34300 ft 504 kts 225°
2026-04-25 05:09 2.94441 104.57342 33405 ft 507 kts 225°
2026-04-25 05:09 2.92032 104.54752 32387 ft 511 kts 225°
2026-04-25 05:09 2.89585 104.52128 31327 ft 516 kts 226°
2026-04-25 05:09 2.87162 104.49534 30324 ft 521 kts 226°
2026-04-25 05:10 2.84639 104.46836 29220 ft 524 kts 226°
2026-04-25 05:10 2.82197 104.44232 28632 ft 518 kts 226°
2026-04-25 05:10 2.79769 104.41637 28334 ft 504 kts 226°
2026-04-25 05:10 2.77375 104.39077 28089 ft 500 kts 226°
2026-04-25 05:11 2.75015 104.36555 27511 ft 496 kts 226°
2026-04-25 05:11 2.72641 104.34019 26489 ft 501 kts 226°
2026-04-25 05:11 2.70260 104.31475 25607 ft 502 kts 226°
2026-04-25 05:12 2.65537 104.26426 24435 ft 479 kts 226°
2026-04-25 05:12 2.63315 104.24050 24039 ft 459 kts 225°
2026-04-25 05:12 2.61175 104.21761 23655 ft 439 kts 225°
2026-04-25 05:12 2.59128 104.19573 23249 ft 422 kts 225°
2026-04-25 05:13 2.57185 104.17497 22813 ft 406 kts 225°
2026-04-25 05:13 2.55276 104.15457 22310 ft 394 kts 225°
2026-04-25 05:13 2.53412 104.13466 21671 ft 387 kts 225°
2026-04-25 05:13 2.51482 104.11661 21171 ft 372 kts 213°
2026-04-25 05:14 2.49197 104.10633 20719 ft 355 kts 188°
2026-04-25 05:14 2.46761 104.10457 20385 ft 350 kts 176°
2026-04-25 05:14 2.44332 104.10476 20084 ft 351 kts 176°
2026-04-25 05:15 2.39434 104.10494 19839 ft 351 kts 177°
2026-04-25 05:15 2.37004 104.10496 19428 ft 350 kts 177°
2026-04-25 05:15 2.34618 104.10498 18984 ft 349 kts 177°
2026-04-25 05:15 2.32153 104.10499 18636 ft 345 kts 177°
2026-04-25 05:16 2.29800 104.10499 18345 ft 341 kts 177°
2026-04-25 05:16 2.27442 104.10498 18046 ft 339 kts 177°
2026-04-25 05:16 2.25072 104.10499 17752 ft 338 kts 177°
2026-04-25 05:16 2.22731 104.10500 17471 ft 337 kts 177°
2026-04-25 05:17 2.20391 104.10500 17185 ft 336 kts 177°
2026-04-25 05:17 2.18050 104.10500 16889 ft 335 kts 177°
2026-04-25 05:17 2.16509 104.10501 16714 ft 334 kts 177°
2026-04-25 05:17 2.14194 104.10501 16437 ft 332 kts 177°
2026-04-25 05:18 2.11890 104.10500 16222 ft 325 kts 177°
2026-04-25 05:18 2.09664 104.10498 16061 ft 315 kts 177°
2026-04-25 05:18 2.06788 104.10497 15804 ft 303 kts 177°
2026-04-25 05:18 2.05398 104.10497 15610 ft 301 kts 177°
2026-04-25 05:19 2.03326 104.10497 15365 ft 295 kts 177°
2026-04-25 05:19 2.01293 104.10498 15122 ft 289 kts 177°
2026-04-25 05:19 1.99299 104.10498 14868 ft 285 kts 177°
2026-04-25 05:19 1.97318 104.10503 14502 ft 286 kts 176°
2026-04-25 05:20 1.95324 104.10515 14164 ft 286 kts 177°
2026-04-25 05:20 1.93343 104.10524 13903 ft 283 kts 177°
2026-04-25 05:20 1.91384 104.10533 13657 ft 281 kts 177°
2026-04-25 05:20 1.89433 104.10542 13409 ft 280 kts 177°
2026-04-25 05:21 1.87490 104.10552 13167 ft 279 kts 177°
2026-04-25 05:21 1.85555 104.10561 12937 ft 278 kts 177°
2026-04-25 05:21 1.83620 104.10569 12709 ft 277 kts 177°
2026-04-25 05:21 1.81695 104.10577 12486 ft 276 kts 177°
2026-04-25 05:22 1.79764 104.10586 12332 ft 277 kts 177°
2026-04-25 05:22 1.77855 104.10594 12118 ft 275 kts 177°
2026-04-25 05:22 1.75941 104.10603 11877 ft 274 kts 177°
2026-04-25 05:22 1.74060 104.10611 11665 ft 273 kts 177°
2026-04-25 05:23 1.72159 104.10620 11439 ft 272 kts 177°
2026-04-25 05:23 1.70274 104.10628 11204 ft 271 kts 177°
2026-04-25 05:23 1.68388 104.10636 10979 ft 270 kts 177°
2026-04-25 05:23 1.66516 104.10644 10763 ft 270 kts 177°
2026-04-25 05:24 1.64560 104.10656 10675 ft 294 kts 177°
2026-04-25 05:24 1.62288 104.10673 10587 ft 298 kts 176°
2026-04-25 05:24 1.60416 104.10822 10183 ft 298 kts 170°
2026-04-25 05:24 1.58363 104.11117 9795 ft 298 kts 169°
2026-04-25 05:25 1.56310 104.11426 9477 ft 297 kts 169°
2026-04-25 05:25 1.54260 104.11734 9222 ft 297 kts 169°
2026-04-25 05:25 1.52225 104.12036 8978 ft 296 kts 169°
2026-04-25 05:25 1.50196 104.12336 8722 ft 295 kts 169°
2026-04-25 05:26 1.47916 104.12672 8453 ft 294 kts 169°
2026-04-25 05:26 1.45883 104.12845 8197 ft 295 kts 182°
2026-04-25 05:26 1.43878 104.12297 7956 ft 296 kts 201°
2026-04-25 05:26 1.42032 104.11501 7703 ft 295 kts 202°
2026-04-25 05:27 1.40119 104.10668 7482 ft 290 kts 202°
2026-04-25 05:27 1.38322 104.09895 7313 ft 280 kts 201°
2026-04-25 05:27 1.36565 104.09144 7100 ft 271 kts 201°
2026-04-25 05:27 1.34842 104.08411 6804 ft 268 kts 201°
2026-04-25 05:28 1.33165 104.07698 6539 ft 253 kts 201°
2026-04-25 05:28 1.31594 104.07030 6339 ft 239 kts 201°
2026-04-25 05:28 1.30096 104.06394 6182 ft 226 kts 201°
2026-04-25 05:28 1.28676 104.05792 6103 ft 219 kts 201°
2026-04-25 05:29 1.27286 104.05204 6035 ft 211 kts 201°
2026-04-25 05:29 1.25991 104.04655 5862 ft 195 kts 201°
2026-04-25 05:29 1.24763 104.04135 5623 ft 187 kts 201°
2026-04-25 05:29 1.23576 104.03633 5346 ft 183 kts 201°
2026-04-25 05:30 1.22420 104.03144 5155 ft 178 kts 201°
2026-04-25 05:30 1.21293 104.02666 5003 ft 174 kts 200°
2026-04-25 05:30 1.20180 104.02196 4858 ft 174 kts 201°
2026-04-25 05:30 1.19060 104.01723 4712 ft 174 kts 201°
2026-04-25 05:31 1.17946 104.01250 4562 ft 174 kts 201°
2026-04-25 05:31 1.16845 104.00785 4421 ft 173 kts 201°
2026-04-25 05:31 1.15724 104.00310 4270 ft 173 kts 201°
2026-04-25 05:31 1.14657 103.99763 4179 ft 172 kts 216°
2026-04-25 05:32 1.13944 103.98833 3903 ft 171 kts 253°
2026-04-25 05:32 1.14047 103.97698 3504 ft 172 kts 304°
2026-04-25 05:32 1.14942 103.96929 3130 ft 175 kts 333°
2026-04-25 05:32 1.16065 103.96352 2878 ft 183 kts 335°
2026-04-25 05:33 1.17210 103.95762 2803 ft 188 kts 334°
2026-04-25 05:33 1.18362 103.95146 2733 ft 189 kts 333°
2026-04-25 05:33 1.19525 103.94514 2592 ft 190 kts 333°
2026-04-25 05:33 1.20682 103.93957 2504 ft 178 kts 344°
2026-04-25 05:34 1.21818 103.93898 2484 ft 150 kts 14°
2026-04-25 05:34 1.22740 103.94203 2460 ft 136 kts 20°
2026-04-25 05:34 1.23646 103.94483 2135 ft 138 kts 21°
2026-04-25 05:34 1.24539 103.94882 1812 ft 141 kts 24°
2026-04-25 05:35 1.25431 103.95262 1582 ft 137 kts 24°
2026-04-25 05:35 1.26299 103.95632 1394 ft 134 kts 25°
2026-04-25 05:35 1.27157 103.95999 1233 ft 134 kts 24°
2026-04-25 05:35 1.28017 103.96366 1049 ft 135 kts 25°
2026-04-25 05:36 1.28880 103.96737 901 ft 135 kts 24°
2026-04-25 05:36 1.29724 103.97117 717 ft 134 kts 23°
2026-04-25 05:36 1.30569 103.97490 563 ft 134 kts 24°
2026-04-25 05:36 1.31429 103.97864 386 ft 136 kts 24°
2026-04-25 05:37 1.32294 103.98244 208 ft 134 kts 22°
2026-04-25 05:37 1.33145 103.98615 44 ft 131 kts 21°
2026-04-25 05:37 1.33897 103.98927 37 ft 96 kts 23°
2026-04-25 05:37 1.34366 103.99124 39 ft 50 kts 22°
2026-04-25 05:38 1.34606 103.99222 38 ft 34 kts 19°
2026-04-25 05:38 1.34797 103.99249 38 ft 23 kts 355°
2026-04-25 05:38 1.34889 103.99232 36 ft 9 kts 323°
2026-04-25 05:38 1.34893 103.99169 35 ft 11 kts 248°
2026-04-25 05:39 1.34849 103.99131 35 ft 8 kts 219°
2026-04-25 05:39 1.34850 103.99078 34 ft 9 kts 290°
2026-04-25 05:39 1.34877 103.99009 34 ft 12 kts 293°
2026-04-25 05:39 1.34913 103.98928 34 ft 14 kts 294°
2026-04-25 05:40 1.34922 103.98906 34 ft 0 kts 294°
2026-04-25 05:40 1.34924 103.98902 34 ft 2 kts 294°
2026-04-25 05:40 1.34943 103.98877 34 ft 5 kts 311°
2026-04-25 05:40 1.34963 103.98841 34 ft 7 kts 294°
2026-04-25 05:41 1.34981 103.98795 34 ft 3 kts 290°
2026-04-25 05:41 1.34981 103.98794 34 ft 0 kts 290°